Year,Month,Day,Hour,Minute,Value (Times are PST for temperature in C)
2009,06,15,00,00,15.00
2009,06,15,00,01,15.00
2009,06,15,00,02,15.00
2009,06,15,00,03,15.00
2009,06,15,00,04,14.90
2009,06,15,00,05,14.90
2009,06,15,00,06,14.90
2009,06,15,00,07,14.90
2009,06,15,00,08,14.90
2009,06,15,00,09,15.00
2009,06,15,00,10,14.90
2009,06,15,00,11,14.90
2009,06,15,00,12,15.00
2009,06,15,00,13,15.00
2009,06,15,00,14,14.90
2009,06,15,00,15,15.00
2009,06,15,00,16,14.90
2009,06,15,00,17,14.90
2009,06,15,00,18,14.90
2009,06,15,00,19,14.90
2009,06,15,00,20,14.90
2009,06,15,00,21,14.90
2009,06,15,00,22,14.90
2009,06,15,00,23,14.90
2009,06,15,00,24,14.90
2009,06,15,00,25,14.90
2009,06,15,00,26,14.80
2009,06,15,00,27,14.80
2009,06,15,00,28,14.80
2009,06,15,00,29,14.80
2009,06,15,00,30,14.80
2009,06,15,00,31,14.80
2009,06,15,00,32,14.80
2009,06,15,00,33,14.80
2009,06,15,00,34,14.80
2009,06,15,00,35,14.80
2009,06,15,00,36,14.80
2009,06,15,00,37,14.80
2009,06,15,00,38,14.80
2009,06,15,00,39,14.80
2009,06,15,00,40,14.80
2009,06,15,00,41,14.80
2009,06,15,00,42,14.80
2009,06,15,00,43,14.80
2009,06,15,00,44,14.80
2009,06,15,00,45,14.80
2009,06,15,00,46,14.80
2009,06,15,00,47,14.80
2009,06,15,00,48,14.80
2009,06,15,00,49,14.80
2009,06,15,00,50,14.80
2009,06,15,00,51,14.80
2009,06,15,00,52,14.70
2009,06,15,00,53,14.70
2009,06,15,00,54,14.70
2009,06,15,00,55,14.70
2009,06,15,00,56,14.70
2009,06,15,00,57,14.70
2009,06,15,00,58,14.70
2009,06,15,00,59,14.70
2009,06,15,01,00,14.70
2009,06,15,01,01,14.70
2009,06,15,01,02,14.70
2009,06,15,01,03,14.70
2009,06,15,01,04,14.70
2009,06,15,01,05,14.70
2009,06,15,01,06,14.70
2009,06,15,01,07,14.70
2009,06,15,01,08,14.70
2009,06,15,01,09,14.70
2009,06,15,01,10,14.70
2009,06,15,01,11,14.70
2009,06,15,01,12,14.70
2009,06,15,01,13,14.70
2009,06,15,01,14,14.70
2009,06,15,01,15,14.70
2009,06,15,01,16,14.70
2009,06,15,01,17,14.70
2009,06,15,01,18,14.60
2009,06,15,01,19,14.60
2009,06,15,01,20,14.60
2009,06,15,01,21,14.60
2009,06,15,01,22,14.60
2009,06,15,01,23,14.60
2009,06,15,01,24,14.60
2009,06,15,01,25,14.60
2009,06,15,01,26,14.50
2009,06,15,01,27,14.50
2009,06,15,01,28,14.50
2009,06,15,01,29,14.50
2009,06,15,01,30,14.40
2009,06,15,01,31,14.40
2009,06,15,01,32,14.40
2009,06,15,01,33,14.40
2009,06,15,01,34,14.40
2009,06,15,01,35,14.40
2009,06,15,01,36,14.40
2009,06,15,01,37,14.40
2009,06,15,01,38,14.40
2009,06,15,01,39,14.40
2009,06,15,01,40,14.40
2009,06,15,01,41,14.40
2009,06,15,01,42,14.40
2009,06,15,01,43,14.30
2009,06,15,01,44,14.30
2009,06,15,01,49,14.30
2009,06,15,01,50,14.30
2009,06,15,01,51,14.30
2009,06,15,01,52,14.30
2009,06,15,01,53,14.30
2009,06,15,01,54,14.30
2009,06,15,01,55,14.30
2009,06,15,01,56,14.30
2009,06,15,01,57,14.30
2009,06,15,01,58,14.30
2009,06,15,01,59,14.30
2009,06,15,02,00,14.30
2009,06,15,02,01,14.30
2009,06,15,02,02,14.30
2009,06,15,02,03,14.30
2009,06,15,02,04,14.30
2009,06,15,02,05,14.20
2009,06,15,02,06,14.20
2009,06,15,02,07,14.20
2009,06,15,02,08,14.20
2009,06,15,02,09,14.20
2009,06,15,02,10,14.20
2009,06,15,02,11,14.20
2009,06,15,02,12,14.20
2009,06,15,02,13,14.20
2009,06,15,02,14,14.20
2009,06,15,02,15,14.10
2009,06,15,02,16,14.10
2009,06,15,02,17,14.10
2009,06,15,02,18,14.10
2009,06,15,02,19,14.10
2009,06,15,02,20,14.10
2009,06,15,02,21,14.00
2009,06,15,02,22,14.00
2009,06,15,02,23,14.00
2009,06,15,02,24,14.00
2009,06,15,02,25,13.90
2009,06,15,02,26,13.90
2009,06,15,02,27,13.90
2009,06,15,02,28,13.90
2009,06,15,02,29,13.90
2009,06,15,02,30,13.90
2009,06,15,02,31,13.90
2009,06,15,02,32,13.90
2009,06,15,02,33,13.90
2009,06,15,02,34,13.90
2009,06,15,02,35,13.90
2009,06,15,02,36,13.90
2009,06,15,02,37,13.90
2009,06,15,02,38,13.90
2009,06,15,02,39,13.90
2009,06,15,02,40,13.90
2009,06,15,02,41,13.90
2009,06,15,02,42,13.90
2009,06,15,02,43,13.90
2009,06,15,02,44,13.90
2009,06,15,02,45,13.90
2009,06,15,02,46,13.90
2009,06,15,02,47,13.90
2009,06,15,02,48,13.90
2009,06,15,02,49,13.90
2009,06,15,02,50,13.90
2009,06,15,02,51,13.90
2009,06,15,02,52,13.90
2009,06,15,02,53,13.90
2009,06,15,02,54,13.90
2009,06,15,02,55,13.90
2009,06,15,02,56,13.90
2009,06,15,02,57,13.80
2009,06,15,02,58,13.80
2009,06,15,02,59,13.80
2009,06,15,03,00,13.80
2009,06,15,03,01,13.80
2009,06,15,03,02,13.80
2009,06,15,03,03,13.80
2009,06,15,03,04,13.80
2009,06,15,03,05,13.80
2009,06,15,03,06,13.80
2009,06,15,03,07,13.70
2009,06,15,03,08,13.70
2009,06,15,03,09,13.70
2009,06,15,03,10,13.70
2009,06,15,03,11,13.70
2009,06,15,03,12,13.60
2009,06,15,03,13,13.60
2009,06,15,03,14,13.60
2009,06,15,03,15,13.60
2009,06,15,03,16,13.60
2009,06,15,03,17,13.50
2009,06,15,03,18,13.50
2009,06,15,03,19,13.50
2009,06,15,03,20,13.50
2009,06,15,03,21,13.50
2009,06,15,03,22,13.40
2009,06,15,03,23,13.40
2009,06,15,03,24,13.40
2009,06,15,03,25,13.50
2009,06,15,03,26,13.50
2009,06,15,03,27,13.50
2009,06,15,03,28,13.50
2009,06,15,03,29,13.50
2009,06,15,03,30,13.50
2009,06,15,03,31,13.50
2009,06,15,03,32,13.50
2009,06,15,03,33,13.50
2009,06,15,03,34,13.50
2009,06,15,03,35,13.50
2009,06,15,03,36,13.50
2009,06,15,03,37,13.50
2009,06,15,03,38,13.50
2009,06,15,03,39,13.50
2009,06,15,03,40,13.50
2009,06,15,03,41,13.50
2009,06,15,03,42,13.50
2009,06,15,03,43,13.50
2009,06,15,03,44,13.50
2009,06,15,03,45,13.50
2009,06,15,03,46,13.60
2009,06,15,03,47,13.60
2009,06,15,03,48,13.60
2009,06,15,03,49,13.60
2009,06,15,03,50,13.60
2009,06,15,03,51,13.60
2009,06,15,03,52,13.60
2009,06,15,03,53,13.60
2009,06,15,03,54,13.60
2009,06,15,03,55,13.60
2009,06,15,03,56,13.60
2009,06,15,03,57,13.60
2009,06,15,03,58,13.60
2009,06,15,03,59,13.60
2009,06,15,04,00,13.60
2009,06,15,04,01,13.60
2009,06,15,04,02,13.60
2009,06,15,04,03,13.60
2009,06,15,04,04,13.60
2009,06,15,04,05,13.60
2009,06,15,04,06,13.60
2009,06,15,04,07,13.60
2009,06,15,04,08,13.60
2009,06,15,04,09,13.60
2009,06,15,04,10,13.60
2009,06,15,04,11,13.60
2009,06,15,04,12,13.60
2009,06,15,04,13,13.60
2009,06,15,04,14,13.60
2009,06,15,04,15,13.60
2009,06,15,04,16,13.60
2009,06,15,04,17,13.60
2009,06,15,04,18,13.60
2009,06,15,04,19,13.60
2009,06,15,04,20,13.60
2009,06,15,04,21,13.60
2009,06,15,04,22,13.60
2009,06,15,04,23,13.60
2009,06,15,04,24,13.60
2009,06,15,04,25,13.60
2009,06,15,04,26,13.60
2009,06,15,04,27,13.60
2009,06,15,04,28,13.60
2009,06,15,04,29,13.60
2009,06,15,04,30,13.60
2009,06,15,04,31,13.50
2009,06,15,04,32,13.50
2009,06,15,04,33,13.50
2009,06,15,04,34,13.50
2009,06,15,04,35,13.50
2009,06,15,04,36,13.40
2009,06,15,04,37,13.40
2009,06,15,04,38,13.40
2009,06,15,04,39,13.40
2009,06,15,04,40,13.40
2009,06,15,04,41,13.40
2009,06,15,04,42,13.30
2009,06,15,04,43,13.30
2009,06,15,04,44,13.30
2009,06,15,04,45,13.30
2009,06,15,04,46,13.30
2009,06,15,04,47,13.20
2009,06,15,04,48,13.20
2009,06,15,04,49,13.20
2009,06,15,04,50,13.20
2009,06,15,04,51,13.20
2009,06,15,04,52,13.10
2009,06,15,04,53,13.10
2009,06,15,04,54,13.10
2009,06,15,04,55,13.10
2009,06,15,04,56,13.10
2009,06,15,04,57,13.10
2009,06,15,04,58,13.00
2009,06,15,04,59,13.00
2009,06,15,05,00,13.00
2009,06,15,05,01,12.90
2009,06,15,05,02,12.90
2009,06,15,05,03,12.90
2009,06,15,05,04,12.90
2009,06,15,05,05,12.90
2009,06,15,05,06,12.80
2009,06,15,05,07,12.80
2009,06,15,05,08,12.80
2009,06,15,05,09,12.80
2009,06,15,05,10,12.80
2009,06,15,05,11,12.70
2009,06,15,05,12,12.70
2009,06,15,05,13,12.70
2009,06,15,05,14,12.70
2009,06,15,05,15,12.60
2009,06,15,05,16,12.60
2009,06,15,05,17,12.60
2009,06,15,05,18,12.60
2009,06,15,05,19,12.60
2009,06,15,05,20,12.60
2009,06,15,05,21,12.50
2009,06,15,05,22,12.50
2009,06,15,05,23,12.50
2009,06,15,05,24,12.50
2009,06,15,05,25,12.50
2009,06,15,05,26,12.40
2009,06,15,05,27,12.40
2009,06,15,05,28,12.40
2009,06,15,05,29,12.40
2009,06,15,05,30,12.40
2009,06,15,05,31,12.40
2009,06,15,05,32,12.40
2009,06,15,05,33,12.40
2009,06,15,05,34,12.40
2009,06,15,05,35,12.40
2009,06,15,05,36,12.40
2009,06,15,05,37,12.40
2009,06,15,05,38,12.40
2009,06,15,05,39,12.40
2009,06,15,05,40,12.40
2009,06,15,05,41,12.40
2009,06,15,05,42,12.40
2009,06,15,05,43,12.40
2009,06,15,05,44,12.40
2009,06,15,05,45,12.40
2009,06,15,05,46,12.40
2009,06,15,05,47,12.40
2009,06,15,05,48,12.40
2009,06,15,05,49,12.40
2009,06,15,05,50,12.40
2009,06,15,05,51,12.40
2009,06,15,05,52,12.40
2009,06,15,05,53,12.40
2009,06,15,05,54,12.40
2009,06,15,05,55,12.40
2009,06,15,05,56,12.40
2009,06,15,05,57,12.40
2009,06,15,05,58,12.40
2009,06,15,05,59,12.40
2009,06,15,06,00,12.40
2009,06,15,06,01,12.40
2009,06,15,06,02,12.40
2009,06,15,06,03,12.40
2009,06,15,06,04,12.50
2009,06,15,06,05,12.50
2009,06,15,06,06,12.50
2009,06,15,06,07,12.50
2009,06,15,06,08,12.50
2009,06,15,06,09,12.50
2009,06,15,06,10,12.50
2009,06,15,06,11,12.60
2009,06,15,06,12,12.60
2009,06,15,06,13,12.60
2009,06,15,06,14,12.60
2009,06,15,06,15,12.60
2009,06,15,06,16,12.60
2009,06,15,06,17,12.60
2009,06,15,06,18,12.60
2009,06,15,06,19,12.60
2009,06,15,06,20,12.70
2009,06,15,06,21,12.70
2009,06,15,06,22,12.70
2009,06,15,06,23,12.70
2009,06,15,06,24,12.70
2009,06,15,06,25,12.70
2009,06,15,06,26,12.80
2009,06,15,06,27,12.80
2009,06,15,06,28,12.80
2009,06,15,06,29,12.80
2009,06,15,06,30,12.80
2009,06,15,06,31,12.90
2009,06,15,06,32,12.90
2009,06,15,06,33,12.90
2009,06,15,06,34,12.90
2009,06,15,06,35,13.00
2009,06,15,06,36,13.00
2009,06,15,06,37,13.10
2009,06,15,06,38,13.10
2009,06,15,06,39,13.10
2009,06,15,06,40,13.20
2009,06,15,06,41,13.20
2009,06,15,06,42,13.20
2009,06,15,06,43,13.20
2009,06,15,06,44,13.30
2009,06,15,06,45,13.30
2009,06,15,06,46,13.30
2009,06,15,06,47,13.40
2009,06,15,06,48,13.40
2009,06,15,06,49,13.40
2009,06,15,06,50,13.50
2009,06,15,06,51,13.50
2009,06,15,06,52,13.60
2009,06,15,06,53,13.60
2009,06,15,06,54,13.60
2009,06,15,06,55,13.70
2009,06,15,06,56,13.70
2009,06,15,06,57,13.70
2009,06,15,06,58,13.80
2009,06,15,06,59,13.80
2009,06,15,07,00,13.80
2009,06,15,07,01,13.90
2009,06,15,07,02,13.90
2009,06,15,07,03,14.00
2009,06,15,07,04,14.00
2009,06,15,07,05,14.10
2009,06,15,07,06,14.10
2009,06,15,07,07,14.10
2009,06,15,07,08,14.20
2009,06,15,07,09,14.20
2009,06,15,07,10,14.30
2009,06,15,07,11,14.30
2009,06,15,07,12,14.40
2009,06,15,07,13,14.40
2009,06,15,07,14,14.50
2009,06,15,07,15,14.50
2009,06,15,07,16,14.60
2009,06,15,07,17,14.60
2009,06,15,07,18,14.70
2009,06,15,07,19,14.70
2009,06,15,07,20,14.80
2009,06,15,07,21,14.80
2009,06,15,07,22,14.80
2009,06,15,07,23,14.80
2009,06,15,07,24,14.90
2009,06,15,07,25,14.90
2009,06,15,07,26,14.90
2009,06,15,07,27,15.00
2009,06,15,07,28,15.00
2009,06,15,07,29,14.90
2009,06,15,07,30,14.90
2009,06,15,07,31,14.90
2009,06,15,07,32,14.90
2009,06,15,07,33,14.90
2009,06,15,07,34,14.80
2009,06,15,07,35,14.80
2009,06,15,07,36,14.80
2009,06,15,07,37,14.80
2009,06,15,07,38,14.80
2009,06,15,07,39,14.80
2009,06,15,07,40,14.80
2009,06,15,07,41,14.80
2009,06,15,07,42,14.80
2009,06,15,07,43,14.80
2009,06,15,07,44,14.80
2009,06,15,07,45,14.80
2009,06,15,07,46,14.80
2009,06,15,07,47,14.90
2009,06,15,07,48,15.00
2009,06,15,07,49,15.00
2009,06,15,07,50,15.00
2009,06,15,07,51,15.00
2009,06,15,07,52,15.00
2009,06,15,07,53,15.00
2009,06,15,07,54,15.00
2009,06,15,07,55,15.00
2009,06,15,07,56,15.00
2009,06,15,07,57,15.00
2009,06,15,07,58,15.00
2009,06,15,07,59,15.00
2009,06,15,08,00,15.00
2009,06,15,08,01,15.00
2009,06,15,08,02,15.10
2009,06,15,08,03,15.10
2009,06,15,08,04,15.10
2009,06,15,08,05,15.10
2009,06,15,08,06,15.10
2009,06,15,08,07,15.20
2009,06,15,08,08,15.20
2009,06,15,08,09,15.20
2009,06,15,08,10,15.20
2009,06,15,08,11,15.10
2009,06,15,08,12,15.10
2009,06,15,08,13,15.10
2009,06,15,08,14,15.10
2009,06,15,08,15,15.10
2009,06,15,08,16,15.10
2009,06,15,08,17,15.20
2009,06,15,08,18,15.20
2009,06,15,08,19,15.20
2009,06,15,08,20,15.20
2009,06,15,08,21,15.20
2009,06,15,08,22,15.20
2009,06,15,08,23,15.20
2009,06,15,08,24,15.30
2009,06,15,08,25,15.30
2009,06,15,08,26,15.30
2009,06,15,08,27,15.30
2009,06,15,08,28,15.30
2009,06,15,08,29,15.30
2009,06,15,08,30,15.30
2009,06,15,08,31,15.30
2009,06,15,08,32,15.30
2009,06,15,08,33,15.30
2009,06,15,08,34,15.30
2009,06,15,08,35,15.30
2009,06,15,08,36,15.30
2009,06,15,08,37,15.30
2009,06,15,08,38,15.30
2009,06,15,08,39,15.30
2009,06,15,08,40,15.30
2009,06,15,08,41,15.30
2009,06,15,08,42,15.30
2009,06,15,08,43,15.30
2009,06,15,08,44,15.40
2009,06,15,08,45,15.40
2009,06,15,08,46,15.40
2009,06,15,08,47,15.40
2009,06,15,08,48,15.40
2009,06,15,08,49,15.40
2009,06,15,08,50,15.40
2009,06,15,08,51,15.50
2009,06,15,08,52,15.50
2009,06,15,08,53,15.50
2009,06,15,08,54,15.60
2009,06,15,08,55,15.60
2009,06,15,08,56,15.60
2009,06,15,08,57,15.60
2009,06,15,08,58,15.70
2009,06,15,08,59,15.70
2009,06,15,09,00,15.70
2009,06,15,09,01,15.70
2009,06,15,09,02,15.70
2009,06,15,09,03,15.70
2009,06,15,09,04,15.70
2009,06,15,09,05,15.70
2009,06,15,09,06,15.70
2009,06,15,09,07,15.70
2009,06,15,09,08,15.70
2009,06,15,09,09,15.70
2009,06,15,09,10,15.60
2009,06,15,09,11,15.60
2009,06,15,09,12,15.60
2009,06,15,09,13,15.60
2009,06,15,09,14,15.60
2009,06,15,09,15,15.60
2009,06,15,09,16,15.70
2009,06,15,09,17,15.70
2009,06,15,09,18,15.70
2009,06,15,09,19,15.70
2009,06,15,09,20,15.80
2009,06,15,09,21,15.80
2009,06,15,09,22,15.80
2009,06,15,09,23,15.80
2009,06,15,09,24,15.90
2009,06,15,09,25,15.90
2009,06,15,09,26,15.90
2009,06,15,09,27,15.90
2009,06,15,09,28,15.90
2009,06,15,09,29,15.90
2009,06,15,09,30,16.00
2009,06,15,09,31,16.00
2009,06,15,09,32,16.00
2009,06,15,09,33,16.10
2009,06,15,09,34,16.10
2009,06,15,09,35,16.10
2009,06,15,09,36,16.10
2009,06,15,09,37,16.10
2009,06,15,09,38,16.10
2009,06,15,09,39,16.20
2009,06,15,09,40,16.20
2009,06,15,09,41,16.20
2009,06,15,09,42,16.20
2009,06,15,09,43,16.20
2009,06,15,09,44,16.20
2009,06,15,09,45,16.30
2009,06,15,09,46,16.30
2009,06,15,09,47,16.30
2009,06,15,09,48,16.30
2009,06,15,09,49,16.30
2009,06,15,09,50,16.30
2009,06,15,09,51,16.40
2009,06,15,09,52,16.40
2009,06,15,09,53,16.50
2009,06,15,09,54,16.50
2009,06,15,09,55,16.60
2009,06,15,09,56,16.70
2009,06,15,09,57,16.70
2009,06,15,09,58,16.80
2009,06,15,09,59,16.80
2009,06,15,10,00,16.80
2009,06,15,10,01,16.80
2009,06,15,10,02,16.80
2009,06,15,10,03,16.80
2009,06,15,10,04,16.80
2009,06,15,10,05,16.80
2009,06,15,10,06,16.90
2009,06,15,10,07,16.90
2009,06,15,10,08,16.90
2009,06,15,10,09,17.00
2009,06,15,10,10,17.10
2009,06,15,10,11,17.10
2009,06,15,10,12,17.20
2009,06,15,10,13,17.20
2009,06,15,10,14,17.30
2009,06,15,10,15,17.30
2009,06,15,10,16,17.30
2009,06,15,10,17,17.40
2009,06,15,10,18,17.30
2009,06,15,10,19,17.30
2009,06,15,10,20,17.30
2009,06,15,10,21,17.10
2009,06,15,10,22,17.10
2009,06,15,10,23,17.10
2009,06,15,10,24,17.10
2009,06,15,10,25,17.10
2009,06,15,10,26,17.00
2009,06,15,10,27,17.00
2009,06,15,10,28,17.00
2009,06,15,10,29,16.90
2009,06,15,10,30,16.80
2009,06,15,10,31,16.80
2009,06,15,10,32,16.80
2009,06,15,10,33,16.80
2009,06,15,10,34,16.90
2009,06,15,10,35,16.90
2009,06,15,10,36,16.90
2009,06,15,10,37,17.00
2009,06,15,10,38,17.00
2009,06,15,10,39,17.10
2009,06,15,10,40,17.10
2009,06,15,10,41,17.20
2009,06,15,10,42,17.20
2009,06,15,10,43,17.30
2009,06,15,10,44,17.30
2009,06,15,10,45,17.30
2009,06,15,10,46,17.40
2009,06,15,10,47,17.40
2009,06,15,10,48,17.40
2009,06,15,10,49,17.40
2009,06,15,10,50,17.40
2009,06,15,10,51,17.40
2009,06,15,10,52,17.50
2009,06,15,10,53,17.50
2009,06,15,10,54,17.50
2009,06,15,10,55,17.50
2009,06,15,10,56,17.60
2009,06,15,10,57,17.60
2009,06,15,10,58,17.60
2009,06,15,10,59,17.60
2009,06,15,11,00,17.60
2009,06,15,11,01,17.60
2009,06,15,11,02,17.60
2009,06,15,11,03,17.60
2009,06,15,11,04,17.60
2009,06,15,11,05,17.60
2009,06,15,11,06,17.60
2009,06,15,11,07,17.60
2009,06,15,11,08,17.60
2009,06,15,11,09,17.60
2009,06,15,11,10,17.50
2009,06,15,11,11,17.50
2009,06,15,11,12,17.50
2009,06,15,11,13,17.50
2009,06,15,11,14,17.50
2009,06,15,11,15,17.50
2009,06,15,11,16,17.50
2009,06,15,11,17,17.50
2009,06,15,11,18,17.50
2009,06,15,11,19,17.40
2009,06,15,11,20,17.40
2009,06,15,11,21,17.40
2009,06,15,11,22,17.30
2009,06,15,11,23,17.40
2009,06,15,11,24,17.40
2009,06,15,11,25,17.40
2009,06,15,11,26,17.40
2009,06,15,11,27,17.40
2009,06,15,11,28,17.40
2009,06,15,11,29,17.40
2009,06,15,11,30,17.40
2009,06,15,11,31,17.30
2009,06,15,11,32,17.30
2009,06,15,11,33,17.30
2009,06,15,11,34,17.30
2009,06,15,11,35,17.30
2009,06,15,11,36,17.30
2009,06,15,11,37,17.30
2009,06,15,11,38,17.40
2009,06,15,11,39,17.50
2009,06,15,11,40,17.60
2009,06,15,11,41,17.70
2009,06,15,11,42,17.80
2009,06,15,11,43,17.80
2009,06,15,11,44,17.80
2009,06,15,11,45,17.90
2009,06,15,11,46,17.90
2009,06,15,11,47,18.00
2009,06,15,11,48,18.00
2009,06,15,11,49,18.00
2009,06,15,11,50,18.10
2009,06,15,11,51,18.10
2009,06,15,11,52,18.10
2009,06,15,11,53,18.20
2009,06,15,11,54,18.20
2009,06,15,11,55,18.30
2009,06,15,11,56,18.40
2009,06,15,11,57,18.50
2009,06,15,11,58,18.60
2009,06,15,11,59,18.60
2009,06,15,12,00,18.70
2009,06,15,12,01,18.80
2009,06,15,12,02,18.90
2009,06,15,12,03,18.90
2009,06,15,12,04,18.90
2009,06,15,12,05,18.90
2009,06,15,12,06,18.90
2009,06,15,12,07,18.90
2009,06,15,12,08,18.90
2009,06,15,12,09,18.90
2009,06,15,12,10,18.90
2009,06,15,12,11,18.90
2009,06,15,12,12,19.00
2009,06,15,12,13,19.00
2009,06,15,12,14,19.10
2009,06,15,12,15,19.20
2009,06,15,12,16,19.30
2009,06,15,12,17,19.30
2009,06,15,12,18,19.30
2009,06,15,12,19,19.30
2009,06,15,12,20,19.20
2009,06,15,12,21,19.20
2009,06,15,12,22,19.10
2009,06,15,12,23,19.00
2009,06,15,12,24,19.00
2009,06,15,12,25,18.90
2009,06,15,12,26,18.90
2009,06,15,12,27,18.90
2009,06,15,12,28,19.00
2009,06,15,12,29,19.10
2009,06,15,12,30,19.20
2009,06,15,12,31,19.20
2009,06,15,12,32,19.20
2009,06,15,12,33,19.20
2009,06,15,12,34,19.20
2009,06,15,12,35,19.20
2009,06,15,12,36,19.20
2009,06,15,12,37,19.20
2009,06,15,12,38,19.20
2009,06,15,12,39,19.30
2009,06,15,12,40,19.40
2009,06,15,12,41,19.50
2009,06,15,12,42,19.60
2009,06,15,12,43,19.70
2009,06,15,12,44,19.70
2009,06,15,12,45,19.70
2009,06,15,12,46,19.80
2009,06,15,12,47,19.80
2009,06,15,12,48,19.90
2009,06,15,12,49,19.90
2009,06,15,12,50,20.00
2009,06,15,12,51,20.00
2009,06,15,12,52,20.10
2009,06,15,12,53,20.20
2009,06,15,12,54,20.30
2009,06,15,12,55,20.40
2009,06,15,12,56,20.40
2009,06,15,12,57,20.40
2009,06,15,12,58,20.50
2009,06,15,12,59,20.50
2009,06,15,13,00,20.60
2009,06,15,13,01,20.60
2009,06,15,13,02,20.60
2009,06,15,13,03,20.70
2009,06,15,13,04,20.60
2009,06,15,13,05,20.60
2009,06,15,13,06,20.40
2009,06,15,13,07,20.40
2009,06,15,13,08,20.40
2009,06,15,13,09,20.40
2009,06,15,13,10,20.40
2009,06,15,13,11,20.30
2009,06,15,13,12,20.30
2009,06,15,13,13,20.30
2009,06,15,13,14,20.30
2009,06,15,13,15,20.30
2009,06,15,13,16,20.40
2009,06,15,13,17,20.40
2009,06,15,13,18,20.40
2009,06,15,13,19,20.40
2009,06,15,13,20,20.40
2009,06,15,13,21,20.40
2009,06,15,13,22,20.40
2009,06,15,13,23,20.40
2009,06,15,13,24,20.50
2009,06,15,13,25,20.40
2009,06,15,13,26,20.40
2009,06,15,13,27,20.40
2009,06,15,13,28,20.50
2009,06,15,13,29,20.50
2009,06,15,13,30,20.60
2009,06,15,13,31,20.60
2009,06,15,13,32,20.60
2009,06,15,13,33,20.70
2009,06,15,13,34,20.70
2009,06,15,13,35,20.80
2009,06,15,13,36,20.70
2009,06,15,13,37,20.60
2009,06,15,13,38,20.50
2009,06,15,13,39,20.50
2009,06,15,13,40,20.50
2009,06,15,13,41,20.60
2009,06,15,13,42,20.60
2009,06,15,13,43,20.70
2009,06,15,13,44,20.80
2009,06,15,13,45,20.80
2009,06,15,13,46,20.90
2009,06,15,13,47,20.90
2009,06,15,13,48,20.90
2009,06,15,13,49,21.00
2009,06,15,13,50,21.00
2009,06,15,13,51,21.10
2009,06,15,13,52,21.10
2009,06,15,13,53,21.10
2009,06,15,13,54,21.10
2009,06,15,13,55,21.10
2009,06,15,13,56,21.10
2009,06,15,13,57,21.10
2009,06,15,13,58,21.10
2009,06,15,13,59,21.10
2009,06,15,14,00,21.10
2009,06,15,14,01,21.00
2009,06,15,14,02,20.90
2009,06,15,14,03,20.70
2009,06,15,14,04,20.60
2009,06,15,14,05,20.50
2009,06,15,14,06,20.50
2009,06,15,14,07,20.50
2009,06,15,14,08,20.60
2009,06,15,14,09,20.60
2009,06,15,14,10,20.60
2009,06,15,14,11,20.70
2009,06,15,14,12,20.80
2009,06,15,14,13,20.80
2009,06,15,14,14,20.90
2009,06,15,14,15,21.00
2009,06,15,14,16,21.10
2009,06,15,14,17,21.20
2009,06,15,14,18,21.20
2009,06,15,14,19,21.20
2009,06,15,14,20,21.20
2009,06,15,14,21,21.00
2009,06,15,14,22,20.90
2009,06,15,14,23,20.90
2009,06,15,14,24,20.90
2009,06,15,14,25,21.00
2009,06,15,14,26,21.00
2009,06,15,14,27,21.10
2009,06,15,14,28,21.10
2009,06,15,14,29,21.10
2009,06,15,14,30,21.10
2009,06,15,14,31,21.00
2009,06,15,14,32,20.90
2009,06,15,14,33,20.90
2009,06,15,14,34,20.80
2009,06,15,14,35,20.90
2009,06,15,14,36,20.90
2009,06,15,14,37,21.00
2009,06,15,14,38,21.10
2009,06,15,14,39,21.10
2009,06,15,14,40,21.20
2009,06,15,14,41,21.20
2009,06,15,14,42,21.20
2009,06,15,14,43,21.20
2009,06,15,14,44,21.20
2009,06,15,14,45,21.20
2009,06,15,14,46,21.20
2009,06,15,14,47,21.30
2009,06,15,14,48,21.30
2009,06,15,14,49,21.40
2009,06,15,14,50,21.40
2009,06,15,14,51,21.40
2009,06,15,14,52,21.50
2009,06,15,14,53,21.60
2009,06,15,14,54,21.60
2009,06,15,14,55,21.80
2009,06,15,14,56,21.80
2009,06,15,14,57,21.90
2009,06,15,14,58,22.00
2009,06,15,14,59,22.00
2009,06,15,15,00,22.00
2009,06,15,15,01,22.10
2009,06,15,15,02,22.10
2009,06,15,15,03,22.20
2009,06,15,15,04,22.30
2009,06,15,15,05,22.30
2009,06,15,15,06,22.30
2009,06,15,15,07,22.40
2009,06,15,15,08,22.40
2009,06,15,15,09,22.40
2009,06,15,15,10,22.40
2009,06,15,15,11,22.40
2009,06,15,15,12,22.50
2009,06,15,15,13,22.50
2009,06,15,15,14,22.60
2009,06,15,15,15,22.50
2009,06,15,15,16,22.50
2009,06,15,15,17,22.50
2009,06,15,15,18,22.40
2009,06,15,15,19,22.40
2009,06,15,15,20,22.30
2009,06,15,15,21,22.20
2009,06,15,15,22,22.00
2009,06,15,15,23,22.00
2009,06,15,15,24,22.00
2009,06,15,15,25,22.00
2009,06,15,15,26,22.00
2009,06,15,15,27,22.00
2009,06,15,15,28,21.90
2009,06,15,15,29,21.90
2009,06,15,15,30,21.90
2009,06,15,15,31,21.90
2009,06,15,15,32,22.00
2009,06,15,15,33,22.20
2009,06,15,15,34,22.30
2009,06,15,15,35,22.20
2009,06,15,15,36,22.20
2009,06,15,15,37,22.20
2009,06,15,15,38,22.10
2009,06,15,15,39,22.00
2009,06,15,15,40,22.00
2009,06,15,15,41,22.00
2009,06,15,15,42,22.00
2009,06,15,15,43,22.00
2009,06,15,15,44,22.10
2009,06,15,15,45,22.10
2009,06,15,15,46,22.20
2009,06,15,15,47,22.30
2009,06,15,15,48,22.30
2009,06,15,15,49,22.40
2009,06,15,15,50,22.50
2009,06,15,15,51,22.60
2009,06,15,15,52,22.60
2009,06,15,15,53,22.70
2009,06,15,15,54,22.70
2009,06,15,15,55,22.70
2009,06,15,15,56,22.70
2009,06,15,15,57,22.80
2009,06,15,15,58,22.70
2009,06,15,15,59,22.70
2009,06,15,16,00,22.70
2009,06,15,16,01,22.70
2009,06,15,16,02,22.70
2009,06,15,16,03,22.70
2009,06,15,16,04,22.80
2009,06,15,16,05,22.80
2009,06,15,16,06,22.80
2009,06,15,16,07,22.60
2009,06,15,16,08,22.50
2009,06,15,16,09,22.50
2009,06,15,16,10,22.40
2009,06,15,16,11,22.30
2009,06,15,16,12,22.10
2009,06,15,16,13,22.00
2009,06,15,16,14,21.90
2009,06,15,16,15,21.80
2009,06,15,16,16,21.80
2009,06,15,16,17,21.80
2009,06,15,16,18,21.90
2009,06,15,16,19,22.00
2009,06,15,16,20,22.00
2009,06,15,16,21,22.10
2009,06,15,16,22,22.10
2009,06,15,16,23,22.10
2009,06,15,16,24,22.10
2009,06,15,16,25,22.10
2009,06,15,16,26,22.20
2009,06,15,16,27,22.30
2009,06,15,16,28,22.40
2009,06,15,16,29,22.40
2009,06,15,16,30,22.40
2009,06,15,16,31,22.50
2009,06,15,16,32,22.50
2009,06,15,16,33,22.60
2009,06,15,16,34,22.60
2009,06,15,16,35,22.60
2009,06,15,16,36,22.60
2009,06,15,16,37,22.70
2009,06,15,16,38,22.80
2009,06,15,16,39,22.90
2009,06,15,16,40,23.10
2009,06,15,16,41,23.10
2009,06,15,16,42,23.20
2009,06,15,16,43,23.20
2009,06,15,16,44,23.20
2009,06,15,16,45,23.20
2009,06,15,16,46,23.10
2009,06,15,16,47,23.00
2009,06,15,16,48,22.90
2009,06,15,16,49,22.80
2009,06,15,16,50,22.60
2009,06,15,16,51,22.50
2009,06,15,16,52,22.40
2009,06,15,16,53,22.30
2009,06,15,16,54,22.30
2009,06,15,16,55,22.30
2009,06,15,16,56,22.20
2009,06,15,16,57,22.20
2009,06,15,16,58,22.10
2009,06,15,16,59,22.00
2009,06,15,17,00,21.80
2009,06,15,17,01,21.80
2009,06,15,17,02,21.80
2009,06,15,17,03,21.80
2009,06,15,17,04,21.80
2009,06,15,17,05,21.80
2009,06,15,17,06,21.80
2009,06,15,17,07,21.80
2009,06,15,17,08,21.80
2009,06,15,17,09,21.80
2009,06,15,17,10,21.80
2009,06,15,17,11,21.80
2009,06,15,17,12,21.80
2009,06,15,17,13,21.80
2009,06,15,17,14,21.80
2009,06,15,17,15,21.80
2009,06,15,17,16,21.80
2009,06,15,17,17,21.80
2009,06,15,17,18,21.80
2009,06,15,17,19,21.80
2009,06,15,17,20,21.90
2009,06,15,17,21,21.90
2009,06,15,17,22,22.00
2009,06,15,17,23,22.00